Fergus Falls, MN

7:22 AM CST on November 18, 2019 (GMT -0600)
Fergus Falls Municipal-Mickelson

Weather History for KFFM - October, 2019

Change the Weather History Date:

Monday, October 21, 2019

  Actual Average Record
Temperature  
Mean Temperature 44 °F -  
Max Temperature 50 °F 55 °F 78 °F (1953)
Min Temperature 39 °F 34 °F 17 °F (1982)
Degree Days  
Heating Degree Days 20    
Moisture  
Dew Point 41 °F    
Average Humidity 84    
Maximum Humidity 100    
Minimum Humidity 62    
Precipitation  
Precipitation 0.14 in - - ()
Sea Level Pressure  
Sea Level Pressure 29.51 in    
Wind  
Wind Speed 13 mph ()    
Max Wind Speed 36 mph    
Max Gust Speed 50 mph    
Visibility 8.5 miles    
Events Rain    
Averages and records for this station are not official NWS values.
T = Trace of Precipitation, MM = Missing Value Source: Averaged Metar Reports

Daily Weather History Graph

Daily Weather History Graph

Search for Another Location

Airport or City:

Astronomy

Oct. 21, 2019 Rise Set
Actual Time 7:49 AM CDT 6:27 PM CDT
Civil Twilight 7:19 AM CDT 6:58 PM CDT
Nautical Twilight 6:44 AM CDT 7:33 PM CDT
Astronomical Twilight 6:09 AM CDT 8:08 PM CDT
Moon No Moon Rise 3:20 PM CDT (10/21)
Length of Visible Light 11h 39m
Length of Day
10h 38m
Waning Gibbous, 48% of the Moon is Illuminated
Oct 21
Waning Gibbous
Oct 27
New
Nov 4
First Quarter
Nov 12
Full
Nov 19
Last Quarter

Hourly Weather History & Observations

Time (CDT) Temp. Windchill Dew Point Humidity Pressure Visibility Wind Dir Wind Speed Gust Speed Precip Events Conditions
12:15 AM 50.0 °F - 42.8 °F 76% 29.74 in 10.0 mi SE 13.8 mph 26.5 mph 0.01 in Rain Light Rain
12:19 AM 50.0 °F - 42.8 °F 76% 29.74 in 10.0 mi ESE 8.1 mph 24.2 mph 0.01 in Rain Light Rain
12:38 AM 50.0 °F - 42.8 °F 76% 29.72 in 10.0 mi East 5.8 mph - 0.01 in Rain Light Rain
12:55 AM 50.0 °F - 41.0 °F 71% 29.69 in 10.0 mi East 5.8 mph - 0.01 in   Overcast
1:15 AM 48.2 °F - 42.8 °F 82% 29.70 in 7.0 mi SE 11.5 mph 19.6 mph N/A   Light Drizzle
1:16 AM 48.2 °F - 42.8 °F 82% 29.70 in 7.0 mi SSE 9.2 mph 19.6 mph 0.01 in Rain Light Rain
1:35 AM 48.2 °F - 42.8 °F 82% 29.68 in 10.0 mi East 4.6 mph 16.1 mph 0.01 in Rain Light Rain
1:36 AM 48.2 °F - 42.8 °F 82% 29.68 in 10.0 mi East 4.6 mph 16.1 mph 0.01 in Rain Light Rain
1:58 AM 48.2 °F - 42.8 °F 82% 29.64 in 10.0 mi ENE 8.1 mph - N/A   Light Drizzle
2:16 AM 48.2 °F - 42.8 °F 82% 29.62 in 10.0 mi ENE 8.1 mph - N/A   Overcast
2:36 AM 48.2 °F - 42.8 °F 82% 29.62 in 10.0 mi East 10.4 mph - N/A   Overcast
2:55 AM 48.2 °F - 41.0 °F 76% 29.61 in 10.0 mi ENE 10.4 mph - N/A   Overcast
2:56 AM 48.2 °F - 41.0 °F 76% 29.61 in 10.0 mi ENE 11.5 mph - N/A   Overcast
3:15 AM 48.2 °F - 41.0 °F 76% 29.61 in 10.0 mi East 12.7 mph - N/A   Overcast
3:19 AM 50.0 °F - 41.0 °F 71% 29.60 in 10.0 mi ENE 11.5 mph - N/A   Overcast
3:38 AM 48.2 °F - 41.0 °F 76% 29.61 in 10.0 mi East 5.8 mph 18.4 mph N/A   Overcast
3:55 AM 48.2 °F - 41.0 °F 76% 29.62 in 7.0 mi East 3.5 mph - 0.01 in Rain Light Rain
4:15 AM 46.4 °F 42.4 °F 42.8 °F 87% 29.61 in 10.0 mi ENE 8.1 mph - N/A   Light Drizzle
4:16 AM 46.4 °F 42.4 °F 42.8 °F 87% 29.61 in 10.0 mi ENE 8.1 mph - N/A   Light Drizzle
4:35 AM 46.4 °F 43.5 °F 42.8 °F 87% 29.60 in 10.0 mi NE 5.8 mph - N/A Rain Light Rain
4:58 AM 46.4 °F 41.5 °F 42.8 °F 87% 29.59 in 10.0 mi NE 10.4 mph - N/A   Overcast
5:16 AM 46.4 °F 41.5 °F 42.8 °F 87% 29.58 in 10.0 mi NE 10.4 mph 16.1 mph N/A   Overcast
5:36 AM 46.4 °F 42.4 °F 42.8 °F 87% 29.58 in 10.0 mi ENE 8.1 mph - N/A   Light Drizzle
5:55 AM 46.4 °F 41.9 °F 41.0 °F 81% 29.58 in 10.0 mi ENE 9.2 mph - N/A   Overcast
5:56 AM 46.4 °F 41.5 °F 41.0 °F 81% 29.58 in 10.0 mi ENE 10.4 mph - N/A   Overcast
6:15 AM 48.2 °F - 42.8 °F 82% 29.59 in 7.0 mi East 8.1 mph 17.3 mph 0.01 in Rain Light Rain
6:19 AM 46.4 °F 42.4 °F 42.8 °F 87% 29.59 in 7.0 mi East 8.1 mph 17.3 mph N/A Rain Light Rain
6:37 AM 46.4 °F 43.5 °F 42.8 °F 87% 29.59 in 7.0 mi East 5.8 mph - 0.01 in Rain Rain
6:55 AM 46.4 °F 41.1 °F 42.8 °F 87% 29.58 in 10.0 mi NE 11.5 mph 23.0 mph 0.01 in Rain Light Rain
7:15 AM 46.4 °F 42.4 °F 42.8 °F 87% 29.57 in 10.0 mi NE 8.1 mph - 0.01 in Rain Light Rain
7:16 AM 46.4 °F 42.4 °F 42.8 °F 87% 29.57 in 10.0 mi NE 8.1 mph - 0.01 in Rain Light Rain
7:35 AM 46.4 °F 41.1 °F 42.8 °F 87% 29.57 in 10.0 mi ENE 11.5 mph - 0.01 in Rain Light Rain
7:36 AM 46.4 °F 41.1 °F 42.8 °F 87% 29.57 in 10.0 mi ENE 11.5 mph - N/A Rain Light Rain
7:59 AM 46.4 °F 41.5 °F 42.8 °F 87% 29.56 in 10.0 mi NE 10.4 mph 16.1 mph N/A Rain Light Rain
8:16 AM 46.4 °F 42.4 °F 41.0 °F 81% 29.55 in 10.0 mi NNE 8.1 mph - N/A   Light Drizzle
8:36 AM 46.4 °F 41.5 °F 42.8 °F 87% 29.54 in 10.0 mi NNE 10.4 mph - N/A   Light Drizzle
8:55 AM 46.4 °F 42.4 °F 42.8 °F 87% 29.54 in 10.0 mi NE 8.1 mph - N/A Rain Light Rain
8:56 AM 46.4 °F 42.4 °F 42.8 °F 87% 29.54 in 10.0 mi NE 8.1 mph - N/A Rain Light Rain
9:15 AM 46.4 °F 43.5 °F 41.0 °F 81% 29.54 in 10.0 mi NE 5.8 mph - N/A   Mostly Cloudy
9:19 AM 46.4 °F 43.5 °F 41.0 °F 81% 29.54 in 10.0 mi NE 5.8 mph - N/A   Mostly Cloudy
9:38 AM 46.4 °F 42.9 °F 41.0 °F 81% 29.54 in 10.0 mi NNE 6.9 mph - N/A   Scattered Clouds
9:55 AM 46.4 °F 42.9 °F 41.0 °F 81% 29.54 in 10.0 mi NE 6.9 mph - N/A   Scattered Clouds
10:15 AM 46.4 °F 41.1 °F 41.0 °F 81% 29.52 in 10.0 mi NNE 11.5 mph - N/A   Clear
10:16 AM 46.4 °F 41.1 °F 39.2 °F 76% 29.52 in 10.0 mi NNE 11.5 mph - N/A   Clear
10:35 AM 46.4 °F 41.5 °F 39.2 °F 76% 29.51 in 10.0 mi NNE 10.4 mph 18.4 mph N/A   Clear
10:58 AM 48.2 °F - 39.2 °F 71% 29.50 in 10.0 mi NNE 15.0 mph 19.6 mph N/A   Scattered Clouds
11:17 AM 48.2 °F - 39.2 °F 71% 29.49 in 10.0 mi NNE 12.7 mph 19.6 mph N/A   Clear
11:36 AM 48.2 °F - 37.4 °F 66% 29.48 in 10.0 mi NNE 11.5 mph 23.0 mph N/A   Clear
11:55 AM 48.2 °F - 37.4 °F 66% 29.48 in 10.0 mi NE 15.0 mph 19.6 mph N/A   Clear
11:56 AM 48.2 °F - 37.4 °F 66% 29.47 in 10.0 mi NE 15.0 mph 19.6 mph N/A   Clear
12:15 PM 50.0 °F - 37.4 °F 62% 29.46 in 10.0 mi NNE 15.0 mph 21.9 mph N/A   Clear
12:37 PM 50.0 °F - 37.4 °F 62% 29.45 in 10.0 mi NNE 16.1 mph 21.9 mph N/A   Clear
12:56 PM 50.0 °F - 37.4 °F 62% 29.43 in 10.0 mi NNE 16.1 mph 20.7 mph N/A   Scattered Clouds
1:15 PM 48.2 °F - 39.2 °F 71% 29.43 in 10.0 mi NNE 10.4 mph 23.0 mph N/A   Mostly Cloudy
1:16 PM 48.2 °F - 39.2 °F 71% 29.42 in 10.0 mi NNE 11.5 mph 23.0 mph N/A   Mostly Cloudy
1:36 PM 46.4 °F 42.4 °F 41.0 °F 81% 29.42 in 10.0 mi NNE 8.1 mph - N/A Rain Light Rain
1:58 PM 46.4 °F 39.0 °F 39.2 °F 76% 29.41 in 10.0 mi NE 19.6 mph 26.5 mph N/A Rain Light Rain
2:16 PM 46.4 °F 39.0 °F 39.2 °F 76% 29.39 in 10.0 mi North 19.6 mph 33.4 mph 0.01 in Rain Light Rain
2:36 PM 46.4 °F 38.1 °F 39.2 °F 76% 29.37 in 7.0 mi North 24.2 mph 34.5 mph 0.01 in   Light Drizzle
2:55 PM 46.4 °F 38.5 °F 39.2 °F 76% 29.37 in 5.0 mi North 21.9 mph 35.7 mph 0.01 in Rain Light Rain
2:56 PM 46.4 °F 39.0 °F 39.2 °F 76% 29.37 in 5.0 mi North 19.6 mph 35.7 mph N/A Rain Light Rain
3:20 PM 46.4 °F 38.1 °F 39.2 °F 76% 29.37 in 7.0 mi North 24.2 mph 31.1 mph N/A Rain Light Rain
3:37 PM 46.4 °F 38.1 °F 39.2 °F 76% 29.37 in 5.0 mi NNE 24.2 mph 29.9 mph N/A Rain Light Rain
3:55 PM 46.4 °F 37.9 °F 39.2 °F 76% 29.37 in 7.0 mi North 25.3 mph 33.4 mph 0.01 in Rain Light Rain
4:15 PM 44.6 °F 36.1 °F 41.0 °F 87% 29.37 in 5.0 mi North 21.9 mph 41.4 mph N/A Rain Light Rain
4:16 PM 44.6 °F 35.9 °F 41.0 °F 87% 29.37 in 5.0 mi North 23.0 mph 41.4 mph N/A Rain Light Rain
4:35 PM 44.6 °F 36.1 °F 41.0 °F 87% 29.38 in 7.0 mi North 21.9 mph 33.4 mph 0.01 in Rain Light Rain
4:36 PM 44.6 °F 35.9 °F 41.0 °F 87% 29.37 in 7.0 mi North 23.0 mph 33.4 mph 0.01 in Rain Light Rain
4:59 PM 44.6 °F 35.3 °F 41.0 °F 87% 29.38 in 2.5 mi North 26.5 mph 35.7 mph N/A Rain Light Rain
5:16 PM 44.6 °F 36.6 °F 42.8 °F 93% 29.38 in 3.0 mi North 19.6 mph 33.4 mph 0.01 in Rain Light Rain
5:35 PM 44.6 °F 36.4 °F 42.8 °F 93% 29.39 in 4.0 mi North 20.7 mph 32.2 mph 0.01 in Rain Rain
5:36 PM 44.6 °F 36.6 °F 42.8 °F 93% 29.39 in 4.0 mi North 19.6 mph 32.2 mph 0.01 in Rain Rain
5:55 PM 44.6 °F 36.4 °F 42.8 °F 93% 29.40 in 2.5 mi North 20.7 mph 33.4 mph N/A Rain Rain
5:56 PM 44.6 °F 37.2 °F 42.8 °F 93% 29.40 in 2.5 mi North 17.3 mph 33.4 mph N/A Rain Rain
6:19 PM 44.6 °F 35.9 °F 42.8 °F 93% 29.40 in 5.0 mi North 23.0 mph 40.3 mph 0.01 in Rain Rain
6:36 PM 44.6 °F 34.7 °F 42.8 °F 93% 29.41 in 7.0 mi North 29.9 mph 39.1 mph 0.01 in Rain Light Rain
6:56 PM 44.6 °F 35.1 °F 42.8 °F 93% 29.42 in 10.0 mi North 27.6 mph 40.3 mph N/A Rain Light Rain
7:15 PM 44.6 °F 35.3 °F 42.8 °F 93% 29.43 in 7.0 mi North 26.5 mph 46.0 mph N/A Rain Light Rain
7:16 PM 44.6 °F 35.9 °F 42.8 °F 93% 29.43 in 7.0 mi North 23.0 mph 46.0 mph N/A Rain Light Rain
7:35 PM 42.8 °F 32.5 °F 41.0 °F 93% 29.43 in 7.0 mi North 28.8 mph 36.8 mph 0.01 in Rain Light Rain
7:39 PM 42.8 °F 33.8 °F 41.0 °F 93% 29.44 in 7.0 mi North 21.9 mph 38.0 mph 0.01 in Rain Light Rain
7:58 PM 42.8 °F 32.5 °F 41.0 °F 93% 29.44 in 5.0 mi North 28.8 mph 40.3 mph N/A Rain Light Rain
8:16 PM 42.8 °F 32.5 °F 41.0 °F 93% 29.44 in 10.0 mi North 28.8 mph 41.4 mph 0.01 in Rain Light Rain
8:35 PM 42.8 °F 31.9 °F 39.2 °F 87% 29.45 in 7.0 mi NNW 32.2 mph 44.9 mph 0.01 in Rain Light Rain
8:36 PM 42.8 °F 32.1 °F 39.2 °F 87% 29.45 in 7.0 mi North 31.1 mph 44.9 mph 0.01 in Rain Light Rain
8:55 PM 41.0 °F 30.2 °F 39.2 °F 93% 29.46 in 10.0 mi North 27.6 mph 49.5 mph 0.01 in Rain Light Rain
8:59 PM 41.0 °F 29.8 °F 39.2 °F 93% 29.46 in 10.0 mi NNW 29.9 mph 49.5 mph N/A Rain Light Rain
9:16 PM 41.0 °F 29.0 °F 39.2 °F 93% 29.46 in 7.0 mi NNW 35.7 mph 48.3 mph 0.01 in Rain Light Rain
9:36 PM 39.2 °F 27.2 °F 39.2 °F 100% 29.46 in 5.0 mi NNW 31.1 mph 44.9 mph 0.01 in Rain Light Rain
9:55 PM 39.2 °F 26.6 °F 39.2 °F 100% 29.46 in 7.0 mi NNW 34.5 mph 46.0 mph 0.01 in Rain Rain
9:56 PM 39.2 °F 26.8 °F 39.2 °F 100% 29.47 in 7.0 mi NNW 33.4 mph 46.0 mph N/A Rain Rain
10:15 PM 39.2 °F 27.6 °F 39.2 °F 100% 29.47 in 10.0 mi NNW 28.8 mph 41.4 mph 0.01 in Rain Light Rain
10:19 PM 39.2 °F 27.4 °F 39.2 °F 100% 29.48 in 7.0 mi NNW 29.9 mph 44.9 mph 0.01 in Rain Light Rain
10:37 PM 39.2 °F 27.2 °F 39.2 °F 100% 29.48 in 10.0 mi NNW 31.1 mph 42.6 mph 0.01 in   Light Drizzle
10:55 PM 39.2 °F 27.4 °F 39.2 °F 100% 29.48 in 10.0 mi NNW 29.9 mph 46.0 mph 0.01 in   Light Drizzle
11:15 PM 39.2 °F 28.0 °F 39.2 °F 100% 29.49 in 10.0 mi North 26.5 mph 38.0 mph N/A   Overcast
11:16 PM 39.2 °F 28.5 °F 39.2 °F 100% 29.49 in 10.0 mi NNW 24.2 mph 38.0 mph N/A   Overcast
11:35 PM 39.2 °F 28.3 °F 39.2 °F 100% 29.49 in 10.0 mi NNW 25.3 mph 43.7 mph N/A   Overcast
11:58 PM 39.2 °F 27.4 °F 39.2 °F 100% 29.50 in 10.0 mi NNW 29.9 mph 40.3 mph N/A   Overcast